Regional Weather Roundup
Issued by NWS Mt. Holly, NJ

Current Version | Previous Version | Text Only | Print | Product List | Glossary On
Versions: 1 2 3 4 5 6 7 8 9 10 11 12 13 14 15 16 17 18 19 20 21 22 23 24 25 26 27
000
ASUS41 KPHI 202311
RWRPHI

REGIONAL WEATHER ROUNDUP
NATIONAL WEATHER SERVICE MOUNT HOLLY NJ
600 PM EST MON NOV 20 2017

NOTE:  "FAIR" INDICATES FEW OR NO CLOUDS BELOW 12,000 FEET WITH NO
SIGNIFICANT WEATHER AND/OR OBSTRUCTIONS TO VISIBILITY.

 * = STATION DOES NOT REPORT PRECIPITATION (E.G. RAIN, SNOW, ETC.)
        OR FOG.

NJZ015>026-210000-
SOUTHERN NEW JERSEY

CITY           SKY/WX    TMP DP  RH WIND       PRES   REMARKS
POMONA         CLEAR     43  25  49 CALM      30.16S
MILLVILLE      CLEAR     42  27  55 SW3       30.16S
WRIGHTSTOWN    CLEAR     40  25  56 SW9       30.11R WCI  33
MOUNT HOLLY    CLEAR     42  25  50 SW5       30.14R
TRENTON        CLOUDY    43  23  45 W3        30.12R

$$
NJZ001>014-210000-
NORTHERN NEW JERSEY

CITY           SKY/WX    TMP DP  RH WIND       PRES   REMARKS
SUSSEX         CLEAR     38  25  59 SW3       30.06R
ANDOVER*         N/A     39  25  57 VRB5      30.07R
MORRISTOWN     PTCLDY    41  25  52 SW6       30.10R
NEWARK         MOCLDY    44  24  45 SW15G21   30.10R
TETERBORO      CLEAR     44  24  45 W12       30.08R
CALDWELL       CLEAR     42  24  49 VRB3      30.09R
SOMERVILLE     CLOUDY    42  25  50 VRB5      30.10R
ALLAIRE*       PTCLDY    42  24  49 SW6       30.14R
TOMS RIVER*    PTCLDY    39  26  59 SW7       30.15R WCI  34

$$
PAZ043-044-047-054-055-060>062-066>071-210000-
EASTERN PENNSYLVANIA

CITY           SKY/WX    TMP DP  RH WIND       PRES   REMARKS
PHILADELPHIA   PTCLDY    46  24  42 SW10      30.15R
NORTH PHILA    CLEAR     45  23  42 SW10      30.15R
BLUE BELL*     CLEAR     41  25  52 SW5       30.14R
DOYLESTOWN     CLEAR     42  22  44 SW8       30.11R
QUAKERTOWN*    CLEAR     39  23  52 SW5       30.11S
PERKASIE*      FAIR      39  23  52 SW5       30.12R
POTTSTOWN      CLEAR     40  23  50 W5        30.14R
LANCASTER      CLEAR     42  25  50 SW5       30.12S
COATESVILLE    CLEAR     41  23  48 SW6       30.14R
READING        CLEAR     40  26  57 SW7       30.11R
ALLENTOWN      PTCLDY    38  23  55 SW7       30.10R WCI  33
MOUNT POCONO   CLEAR     34  23  64 W7        30.02R WCI  28
HAZLETON       CLEAR     34  21  60 CALM      30.07R
LEHIGHTON      FAIR      34  27  75 CALM      30.10R
WILKES BARRE   CLEAR     40  24  53 SW8       30.05R WCI  34

$$
DEZALL-MDZ008-012-015-019-020-210000-
DELAWARE AND EASTERN MARYLAND

CITY           SKY/WX    TMP DP  RH WIND       PRES   REMARKS
WILMINGTON     CLEAR     42  23  46 W7        30.15F
DOVER          CLEAR     40  24  51 SW8       30.16S WCI  35
GEORGETOWN     CLEAR     41  26  55 SW6       30.19S
EASTON         CLEAR     45  27  49 SW5       30.22S
ABERDEEN       CLEAR     38  24  56 SW5       30.16S WCI  35
PATUXENT       PTCLDY    42  29  59 SW5       30.20R
OCEAN CITY     CLEAR     42  29  59 W7        30.21S
WALLOPS ISLAND CLEAR     38  31  76 CALM      30.22S
CAMBRIDGE      CLEAR     41  28  60 CALM      30.19S
SALISBURY      CLEAR     39  31  72 S3        30.20S

$$
PAZ001-021-NYZ056-072-MDZ011-DCZ001-210000-
OTHER NEARBY LOCATIONS

CITY           SKY/WX    TMP DP  RH WIND       PRES   REMARKS
HARRISBURG     PTCLDY    45  25  45 SW9       30.12R
STATE COLLEGE  CLEAR     37  23  56 SW12      30.06R WCI  30
WILLIAMSPORT   CLEAR     42  24  49 SW6       30.06R
BINGHAMTON     CLEAR     34  24  67 SW7       29.97R WCI  28
NEW YORK CITY  CLEAR     44  24  45 VRB7      30.11R
BALTIMORE      PTCLDY    45  22  40 SW6       30.16S
WASHINGTON DC  PTCLDY    48  22  35 S8        30.18S

$$




USA.gov is the U.S. government's official web portal to all federal, state and local government web resources and services.